Frankfort, KY

12:55 AM EDT on June 24, 2017 (GMT -0400)
Capital City

Weather History for KFFT - October, 2011

Change the Weather History Date:

Sunday, October 30, 2011

  Actual Average Record
Temperature  
Mean Temperature 43 °F 52 °F  
Max Temperature 59 °F 64 °F 85 °F (1933)
Min Temperature 26 °F 41 °F 22 °F (1976)
Degree Days  
Heating Degree Days 22 13  
Month to date heating degree days 310 274  
Since 1 July heating degree days 390 328  
Cooling Degree Days 0 0  
Month to date cooling degree days 2 15  
Year to date cooling degree days 1285 1150  
Moisture  
Dew Point 29 °F    
Average Humidity 62    
Maximum Humidity 92    
Minimum Humidity 31    
Precipitation  
Precipitation 0.00 in 0.11 in 2.20 in (1921)
Month to date precipitation 3.15 3.13  
Year to date precipitation 53.71 37.77  
Sea Level Pressure  
Sea Level Pressure 30.21 in    
Wind  
Wind Speed 3 mph (South)    
Max Wind Speed 12 mph    
Max Gust Speed 14 mph    
Visibility 10 miles    
Events      
T = Trace of Precipitation, MM = Missing Value Source: NWS Daily Summary

Daily Weather History Graph

Daily Weather History Graph

Search for Another Location

Airport or City:

Trip Planner

Search our weather history database for the weather conditions in past years. The results will help you decide how hot, cold, wet, or windy it might be!

Date:

Astronomy

Oct. 30, 2011 Rise Set
Actual Time 8:03 AM EDT 6:42 PM EDT
Civil Twilight 7:35 AM EDT 7:09 PM EDT
Nautical Twilight 7:04 AM EDT 7:41 PM EDT
Astronomical Twilight 6:34 AM EDT 8:11 PM EDT
Moon 12:19 PM EDT (10/30) 10:13 PM EDT (10/30)
Length of Visible Light 11h 34m
Length of Day
10h 39m
Waxing Crescent, 20% of the Moon is Illuminated
Oct 30
Waxing Crescent
Nov 2
First Quarter
Nov 10
Full
Nov 18
Last Quarter
Nov 25
New

Hourly Weather History & Observations

Time (EDT) Temp. Windchill Dew Point Humidity Pressure Visibility Wind Dir Wind Speed Gust Speed Precip Events Conditions
12:53 AM 30.9 °F - 28.9 °F 92% 30.17 in 10.0 mi Calm Calm - N/A   Clear
1:53 AM 30.9 °F - 27.0 °F 85% 30.17 in 10.0 mi Calm Calm - N/A   Clear
2:53 AM 30.0 °F - 28.0 °F 92% 30.18 in 10.0 mi Calm Calm - N/A   Clear
3:53 AM 28.9 °F - 27.0 °F 92% 30.19 in 10.0 mi Calm Calm - N/A   Clear
4:53 AM 28.0 °F - 26.1 °F 92% 30.20 in 10.0 mi Calm Calm - N/A   Clear
5:53 AM 28.0 °F - 25.0 °F 88% 30.21 in 10.0 mi Calm Calm - N/A   Clear
6:53 AM 27.0 °F - 25.0 °F 92% 30.23 in 10.0 mi Calm Calm - N/A   Clear
7:53 AM 27.0 °F - 24.1 °F 89% 30.25 in 10.0 mi Calm Calm - N/A   Clear
8:53 AM 30.0 °F - 28.0 °F 92% 30.27 in 10.0 mi Calm Calm - N/A   Clear
9:53 AM 37.0 °F - 32.0 °F 82% 30.29 in 10.0 mi Calm Calm - N/A   Clear
10:53 AM 46.9 °F - 33.1 °F 59% 30.28 in 10.0 mi Variable 3.5 mph - N/A   Clear
11:53 AM 52.0 °F - 30.0 °F 43% 30.28 in 10.0 mi South 5.8 mph - N/A   Clear
12:53 PM 54.0 °F - 28.9 °F 38% 30.27 in 10.0 mi SSW 6.9 mph - N/A   Clear
1:53 PM 57.0 °F - 30.0 °F 36% 30.23 in 10.0 mi South 8.1 mph - N/A   Clear
2:53 PM 59.0 °F - 28.0 °F 31% 30.20 in 10.0 mi Calm Calm - N/A   Clear
3:53 PM 57.9 °F - 30.0 °F 35% 30.19 in 10.0 mi SSW 8.1 mph - N/A   Clear
5:53 PM 55.9 °F - 28.9 °F 36% 30.16 in 10.0 mi South 6.9 mph - N/A   Clear
6:53 PM 52.0 °F - 28.0 °F 40% 30.16 in 10.0 mi SSE 3.5 mph - N/A   Clear
7:53 PM 48.0 °F - 28.9 °F 48% 30.17 in 10.0 mi SE 5.8 mph - N/A   Clear
8:53 PM 46.9 °F - 30.0 °F 52% 30.17 in 10.0 mi SSE 3.5 mph - N/A   Clear
9:53 PM 41.0 °F - 32.0 °F 70% 30.17 in 10.0 mi Calm Calm - N/A   Clear
10:53 PM 44.1 °F 40.1 °F 30.0 °F 58% 30.17 in 10.0 mi SSE 6.9 mph - N/A   Partly Cloudy
11:53 PM 44.1 °F 42.5 °F 28.9 °F 55% 30.15 in 10.0 mi SSE 3.5 mph - N/A   Partly Cloudy